Weather History for KJBR - March, 2013

Change the Weather History Date:

Friday, March 1, 2013

  Actual Average Record
Temperature  
Mean Temperature 35 °F 45 °F  
Max Temperature 38 °F 55 °F 83 °F (1932)
Min Temperature 32 °F 36 °F 9 °F (1980)
Degree Days  
Heating Degree Days 30 20  
Month to date heating degree days 30 20  
Since 1 July heating degree days 2658 2976  
Cooling Degree Days 0 0  
Month to date cooling degree days 0 0  
Year to date cooling degree days 0 0  
Moisture  
Dew Point 27 °F    
Average Humidity 65    
Maximum Humidity 75    
Minimum Humidity 54    
Precipitation  
Precipitation T in 0.14 in 1.26 in (1991)
Month to date precipitation T 0.14  
Year to date precipitation 9.79 7.29  
Snow  
Snow 0.00 in 0.00 in 1.50 in (1922)
Month to date snowfall 0.0 0.0  
Since 1 July snowfall 7.0 4.1  
Snow Depth 0.00 in    
Sea Level Pressure  
Sea Level Pressure 30.15 in    
Wind  
Wind Speed 8 mph (NW)    
Max Wind Speed 16 mph    
Max Gust Speed 20 mph    
Visibility 10 miles    
Events Snow    
T = Trace of Precipitation, MM = Missing Value Source: NWS Daily Summary

Daily Weather History Graph

Daily Weather History Graph

Search for Another Location

Airport or City:

Trip Planner

Search our weather history database for the weather conditions in past years. The results will help you decide how hot, cold, wet, or windy it might be!

Date:

Astronomy

Mar. 01, 2013 Rise Set
Actual Time 6:32 AM CST 5:57 PM CST
Civil Twilight 6:06 AM CST 6:23 PM CST
Nautical Twilight 5:36 AM CST 6:53 PM CST
Astronomical Twilight 5:07 AM CST 7:22 PM CST
Moon 10:20 PM CST (3/1) 8:28 AM CST (3/1)
Length of Visible Light 12h 17m
Length of Day
11h 25m
Waning Gibbous, 83% of the Moon is Illuminated
Mar 1
Waning Gibbous
Mar 4
Last Quarter
Mar 11
New
Mar 19
First Quarter
Mar 27
Full

Hourly Weather History & Observations

Time (CST) Temp. Windchill Dew Point Humidity Pressure Visibility Wind Dir Wind Speed Gust Speed Precip Events Conditions
12:53 AM 36.0 °F 31.1 °F 27.0 °F 70% 30.14 in 10.0 mi NW 5.8 mph - N/A   Overcast
1:53 AM 35.6 °F 29.2 °F 26.6 °F 70% 30.13 in 10.0 mi NW 8.1 mph - N/A   Overcast
2:53 AM 35.6 °F 29.9 °F 26.6 °F 70% 30.12 in 10.0 mi NW 6.9 mph - N/A   Overcast
3:53 AM 35.1 °F 30.1 °F 27.0 °F 72% 30.12 in 10.0 mi NW 5.8 mph - N/A   Overcast
4:53 AM 35.1 °F 29.3 °F 27.0 °F 72% 30.12 in 10.0 mi NW 6.9 mph - N/A   Overcast
5:05 AM 35.6 °F 31.7 °F 26.6 °F 70% 30.12 in 10.0 mi North 4.6 mph - N/A   Overcast
5:53 AM 35.1 °F 31.0 °F 27.0 °F 72% 30.13 in 10.0 mi NNW 4.6 mph - N/A   Overcast
6:09 AM 35.6 °F 31.7 °F 26.6 °F 70% 30.12 in 10.0 mi NNW 4.6 mph - N/A   Overcast
6:53 AM 34.0 °F - 27.0 °F 75% 30.13 in 10.0 mi Calm Calm - N/A   Mostly Cloudy
7:53 AM 36.0 °F 31.1 °F 28.0 °F 73% 30.15 in 10.0 mi WNW 5.8 mph - N/A   Overcast
8:16 AM 35.6 °F 29.9 °F 28.4 °F 75% 30.14 in 10.0 mi WNW 6.9 mph - N/A   Overcast
8:30 AM 35.6 °F 29.2 °F 28.4 °F 75% 30.15 in 10.0 mi NW 8.1 mph - N/A   Overcast
8:41 AM 37.4 °F 31.4 °F 28.4 °F 70% 30.15 in 10.0 mi NW 8.1 mph - N/A   Overcast
8:53 AM 37.0 °F 31.0 °F 28.0 °F 70% 30.15 in 10.0 mi NNW 8.1 mph - N/A   Overcast
9:23 AM 37.4 °F 29.3 °F 26.6 °F 65% 30.15 in 10.0 mi NW 12.7 mph - N/A   Overcast
9:53 AM 37.0 °F 31.6 °F 28.0 °F 70% 30.16 in 10.0 mi NW 6.9 mph - N/A   Overcast
10:53 AM 37.0 °F 32.4 °F 26.1 °F 65% 30.16 in 10.0 mi NW 5.8 mph - 0.00 in   Overcast
11:53 AM 37.0 °F 32.4 °F 27.0 °F 67% 30.16 in 10.0 mi NW 5.8 mph - N/A   Overcast
12:53 PM 37.9 °F 30.9 °F 27.0 °F 65% 30.14 in 10.0 mi WNW 10.4 mph - N/A   Overcast
1:53 PM 37.9 °F 29.6 °F 25.0 °F 60% 30.13 in 10.0 mi NW 13.8 mph 19.6 mph N/A   Overcast
2:53 PM 37.0 °F 30.4 °F 25.0 °F 62% 30.13 in 10.0 mi NNW 9.2 mph - N/A   Overcast
3:18 PM 35.6 °F 29.2 °F 28.4 °F 75% 30.13 in 3.0 mi NW 8.1 mph - 0.00 in Snow Light Snow
3:29 PM 37.4 °F 31.4 °F 26.6 °F 65% 30.13 in 8.0 mi NW 8.1 mph - 0.00 in   Overcast
3:53 PM 37.0 °F 28.9 °F 25.0 °F 62% 30.13 in 10.0 mi NW 12.7 mph 19.6 mph 0.00 in   Overcast
4:53 PM 37.0 °F 29.3 °F 24.1 °F 59% 30.14 in 10.0 mi WNW 11.5 mph - N/A   Overcast
5:53 PM 37.0 °F 28.9 °F 23.0 °F 57% 30.16 in 10.0 mi NW 12.7 mph - N/A   Overcast
6:53 PM 35.1 °F 27.4 °F 27.0 °F 72% 30.18 in 10.0 mi NW 10.4 mph - N/A   Overcast
7:53 PM 33.8 °F 25.3 °F 26.6 °F 75% 30.18 in 9.0 mi NW 11.5 mph - N/A Snow Light Snow
8:53 PM 33.1 °F 24.4 °F 26.1 °F 75% 30.19 in 10.0 mi NW 11.5 mph 18.4 mph 0.00 in   Overcast
9:53 PM 33.1 °F 25.5 °F 26.1 °F 75% 30.19 in 10.0 mi NW 9.2 mph - N/A   Overcast
10:53 PM 33.1 °F 26.1 °F 26.1 °F 75% 30.19 in 10.0 mi NW 8.1 mph - N/A   Overcast
11:53 PM 32.0 °F 25.6 °F 26.1 °F 79% 30.19 in 10.0 mi NW 6.9 mph - N/A   Overcast